,,,PA_Meas_PMT16A,,PR_Meas_QMR101_102,,RH_Meas_QMH101,,SR_Meas_QMS101,,TA_Meas_QMH101,,GenWind,,GenWind,
date,time,status,PA,status,PR,status,RH,status,SR,status,TA,status,DirAvg,status,SpdAvg,
2011-11-07, 00:00:04,VALID,1003.36,VALID,0,VALID,86.4352,VALID,0.0815089,VALID,24.8113,VALID,342,VALID,1.10391,
2011-11-07, 00:01:04,VALID,1003.36,VALID,0,VALID,86.4734,VALID,0,VALID,24.7919,VALID,348,VALID,0.857031,
2011-11-07, 00:02:04,VALID,1003.37,VALID,0,VALID,86.6412,VALID,0.0815089,VALID,24.751,VALID,343,VALID,0.894922,
2011-11-07, 00:03:04,VALID,1003.33,VALID,0,VALID,86.6793,VALID,0.0815089,VALID,24.7529,VALID,347,VALID,1.23945,
2011-11-07, 00:04:04,VALID,1003.33,VALID,0,VALID,86.7327,VALID,0,VALID,24.7335,VALID,354,VALID,0.603516,
2011-11-07, 00:05:04,VALID,1003.31,VALID,0,VALID,86.4352,VALID,0.0815089,VALID,24.7335,VALID,352,VALID,0.902344,
2011-11-07, 00:06:04,VALID,1003.3,VALID,0,VALID,86.3055,VALID,0.0815089,VALID,24.7529,VALID,341,VALID,1.04961,
2011-11-07, 00:07:04,VALID,1003.29,VALID,0,VALID,86.4657,VALID,0,VALID,24.7121,VALID,342,VALID,0.739062,
2011-11-07, 00:08:04,VALID,1003.27,VALID,0,VALID,86.3894,VALID,0.0815089,VALID,24.714,VALID,347,VALID,1.01367,
2011-11-07, 00:09:04,VALID,1003.26,VALID,0,VALID,86.1987,VALID,0.0815089,VALID,24.675,VALID,345,VALID,1.17656,
2011-11-07, 00:10:04,VALID,1003.23,VALID,0,VALID,86.2216,VALID,0.0815089,VALID,24.6945,VALID,344,VALID,1.42617,
2011-11-07, 00:11:04,VALID,1003.22,VALID,0,VALID,86.0461,VALID,0,VALID,24.6945,VALID,352,VALID,1.62422,
2011-11-07, 00:12:04,VALID,1003.21,VALID,0,VALID,85.9851,VALID,0,VALID,24.7121,VALID,341,VALID,1,
2011-11-07, 00:13:04,VALID,1003.2,VALID,0,VALID,85.8783,VALID,0.0815089,VALID,24.7316,VALID,351,VALID,1.50469,
2011-11-07, 00:14:04,VALID,1003.21,VALID,0,VALID,85.6876,VALID,0.0815089,VALID,24.7316,VALID,349,VALID,1.2043,
2011-11-07, 00:15:04,VALID,1003.2,VALID,0,VALID,86.1911,VALID,0,VALID,24.7529,VALID,352,VALID,0.798437,
2011-11-07, 00:16:04,VALID,1003.18,VALID,0,VALID,86.0995,VALID,0,VALID,24.7548,VALID,352,VALID,1.19648,
2011-11-07, 00:17:04,VALID,1003.19,VALID,0,VALID,86.0461,VALID,0.0815089,VALID,24.7353,VALID,345,VALID,0.829297,
2011-11-07, 00:18:04,VALID,1003.15,VALID,0,VALID,85.9088,VALID,0,VALID,24.7335,VALID,350,VALID,1.16992,
2011-11-07, 00:19:04,VALID,1003.17,VALID,0,VALID,85.4969,VALID,0,VALID,24.7335,VALID,349,VALID,1.21953,
2011-11-07, 00:20:04,VALID,1003.13,VALID,0,VALID,85.8478,VALID,0,VALID,24.7529,VALID,1,VALID,0.723437,
2011-11-07, 00:21:04,VALID,1003.12,VALID,0,VALID,85.5655,VALID,0.0815089,VALID,24.7529,VALID,351,VALID,1.59414,
2011-11-07, 00:22:04,VALID,1003.07,VALID,0,VALID,85.8173,VALID,0,VALID,24.7529,VALID,2,VALID,0.49375,
2011-11-07, 00:23:04,VALID,1003.03,VALID,0,VALID,85.8478,VALID,0,VALID,24.7335,VALID,5,VALID,0.787109,
2011-11-07, 00:24:04,VALID,1003.03,VALID,0,VALID,85.8402,VALID,0,VALID,24.714,VALID,347,VALID,1.05234,
2011-11-07, 00:25:04,VALID,1003.04,VALID,0,VALID,85.7105,VALID,0,VALID,24.6945,VALID,335,VALID,1.21914,
2011-11-07, 00:26:04,VALID,1003.01,VALID,0,VALID,85.9393,VALID,0,VALID,24.6945,VALID,336,VALID,1.11602,
2011-11-07, 00:27:04,VALID,1003,VALID,0,VALID,85.8783,VALID,0,VALID,24.7159,VALID,356,VALID,0.491016,
2011-11-07, 00:28:04,VALID,1002.96,VALID,0,VALID,85.947,VALID,0,VALID,24.6945,VALID,336,VALID,1.0168,
2011-11-07, 00:29:04,VALID,1002.95,VALID,0,VALID,85.9546,VALID,0,VALID,24.6964,VALID,337,VALID,1.10234,
2011-11-07, 00:30:04,VALID,1002.94,VALID,0,VALID,86.1758,VALID,0.0815089,VALID,24.675,VALID,360,VALID,0.456641,
2011-11-07, 00:31:04,VALID,1002.92,VALID,0,VALID,85.9088,VALID,0.0815089,VALID,24.6537,VALID,349,VALID,0.572266,
2011-11-07, 00:32:04,VALID,1002.88,VALID,0,VALID,85.3748,VALID,0,VALID,24.675,VALID,356,VALID,1.94805,
2011-11-07, 00:33:04,VALID,1002.88,VALID,0,VALID,85.741,VALID,0,VALID,24.714,VALID,9,VALID,0.194922,
2011-11-07, 00:34:04,VALID,1002.88,VALID,0,VALID,84.7721,VALID,0.0815089,VALID,24.7353,VALID,348,VALID,1.32187,
2011-11-07, 00:35:04,VALID,1002.85,VALID,0,VALID,85.0391,VALID,0,VALID,24.7529,VALID,346,VALID,0.623828,
2011-11-07, 00:36:04,VALID,1002.83,VALID,0,VALID,85.0696,VALID,0.0815089,VALID,24.7316,VALID,334,VALID,1.05469,
2011-11-07, 00:37:04,VALID,1002.84,VALID,0,VALID,85.123,VALID,0,VALID,24.7743,VALID,355,VALID,1.13398,
2011-11-07, 00:38:04,VALID,1002.82,VALID,0,VALID,84.9094,VALID,0.0815089,VALID,24.7316,VALID,346,VALID,1.11406,
2011-11-07, 00:39:04,VALID,1002.84,VALID,0,VALID,85.0696,VALID,0.0815089,VALID,24.7529,VALID,356,VALID,0.917188,
2011-11-07, 00:40:04,VALID,1002.83,VALID,0,VALID,85.2833,VALID,0,VALID,24.7529,VALID,341,VALID,0.759766,
2011-11-07, 00:41:04,VALID,1002.79,VALID,0,VALID,85.0086,VALID,0.0815089,VALID,24.7335,VALID,345,VALID,1.02188,
2011-11-07, 00:42:04,VALID,1002.79,VALID,0,VALID,85.1917,VALID,0.0815089,VALID,24.714,VALID,356,VALID,0.829687,
2011-11-07, 00:43:04,VALID,1002.79,VALID,0,VALID,84.7263,VALID,0.0815089,VALID,24.714,VALID,343,VALID,0.873828,
2011-11-07, 00:44:04,VALID,1002.75,VALID,0,VALID,84.6577,VALID,0.0815089,VALID,24.7353,VALID,355,VALID,0.892969,
2011-11-07, 00:45:04,VALID,1002.73,VALID,0,VALID,84.8789,VALID,0.0815089,VALID,24.7316,VALID,318,VALID,0.375391,
2011-11-07, 00:46:04,VALID,1002.74,VALID,0,VALID,84.4136,VALID,0,VALID,24.7353,VALID,356,VALID,0.639063,
2011-11-07, 00:47:04,VALID,1002.75,VALID,0,VALID,84.1389,VALID,0,VALID,24.7548,VALID,327,VALID,0.683594,
2011-11-07, 00:48:04,VALID,1002.73,VALID,0,VALID,84.3296,VALID,0,VALID,24.7743,VALID,303,VALID,0.594141,
2011-11-07, 00:49:04,VALID,1002.73,VALID,0,VALID,84.2152,VALID,0,VALID,24.7743,VALID,330,VALID,0.560938,
2011-11-07, 00:50:04,VALID,1002.71,VALID,0,VALID,84.4059,VALID,0,VALID,24.7529,VALID,318,VALID,0.505859,
2011-11-07, 00:51:04,VALID,1002.71,VALID,0,VALID,84.2305,VALID,0,VALID,24.7548,VALID,351,VALID,1.32734,
2011-11-07, 00:52:04,VALID,1002.72,VALID,0,VALID,84.4364,VALID,0,VALID,24.7548,VALID,353,VALID,0.668359,
2011-11-07, 00:53:04,VALID,1002.75,VALID,0,VALID,84.4593,VALID,0,VALID,24.7353,VALID,350,VALID,0.876172,
2011-11-07, 00:54:04,VALID,1002.74,VALID,0,VALID,84.6729,VALID,0,VALID,24.7353,VALID,348,VALID,0.438281,
2011-11-07, 00:55:04,VALID,1002.74,VALID,0,VALID,84.6882,VALID,0,VALID,24.7159,VALID,324,VALID,0.778906,
2011-11-07, 00:56:04,VALID,1002.71,VALID,0,VALID,84.9934,VALID,0,VALID,24.6964,VALID,353,VALID,0.747266,
2011-11-07, 00:57:04,VALID,1002.71,VALID,0,VALID,84.8789,VALID,0,VALID,24.6769,VALID,340,VALID,0.696875,
2011-11-07, 00:58:04,VALID,1002.71,VALID,0,VALID,85.1612,VALID,0,VALID,24.6574,VALID,2,VALID,0.631641,
2011-11-07, 00:59:04,VALID,1002.7,VALID,0,VALID,85.2222,VALID,0,VALID,24.6574,VALID,353,VALID,0.792188,
2011-11-07, 01:00:04,VALID,1002.7,VALID,0,VALID,84.7874,VALID,0,VALID,24.638,VALID,350,VALID,0.684375,
2011-11-07, 01:01:04,VALID,1002.66,VALID,0,VALID,85.1154,VALID,0,VALID,24.5972,VALID,353,VALID,0.994922,
2011-11-07, 01:02:04,VALID,1002.64,VALID,0,VALID,84.6958,VALID,0,VALID,24.6166,VALID,347,VALID,0.932422,
2011-11-07, 01:03:04,VALID,1002.62,VALID,0,VALID,84.1847,VALID,0,VALID,24.638,VALID,348,VALID,1.25312,
2011-11-07, 01:04:04,VALID,1002.6,VALID,0,VALID,84.4899,VALID,0,VALID,24.6769,VALID,350,VALID,0.785547,
2011-11-07, 01:05:04,VALID,1002.62,VALID,0,VALID,84.9094,VALID,0,VALID,24.6788,VALID,352,VALID,0.778125,
2011-11-07, 01:06:04,VALID,1002.58,VALID,0,VALID,84.6653,VALID,0,VALID,24.638,VALID,350,VALID,1.07734,
2011-11-07, 01:07:04,VALID,1002.57,VALID,0,VALID,84.3525,VALID,0,VALID,24.638,VALID,345,VALID,0.919531,
2011-11-07, 01:08:04,VALID,1002.58,VALID,0,VALID,84.4746,VALID,0,VALID,24.638,VALID,347,VALID,0.773438,
2011-11-07, 01:09:04,VALID,1002.54,VALID,0,VALID,84.2991,VALID,0,VALID,24.6574,VALID,348,VALID,0.909375,
2011-11-07, 01:10:04,VALID,1002.52,VALID,0,VALID,84.3296,VALID,0,VALID,24.6574,VALID,345,VALID,0.876953,
2011-11-07, 01:11:04,VALID,1002.53,VALID,0,VALID,84.5433,VALID,0,VALID,24.638,VALID,352,VALID,1.13984,
2011-11-07, 01:12:04,VALID,1002.53,VALID,0,VALID,84.4593,VALID,0,VALID,24.6574,VALID,352,VALID,1.00312,
2011-11-07, 01:13:04,VALID,1002.5,VALID,0,VALID,84.6729,VALID,0,VALID,24.6361,VALID,349,VALID,0.596094,
2011-11-07, 01:14:04,VALID,1002.51,VALID,0,VALID,84.8026,VALID,0,VALID,24.638,VALID,349,VALID,0.701172,
2011-11-07, 01:15:04,VALID,1002.48,VALID,0,VALID,84.8026,VALID,0,VALID,24.5777,VALID,343,VALID,0.570313,
2011-11-07, 01:16:04,VALID,1002.48,VALID,0,VALID,84.4288,VALID,0,VALID,24.5972,VALID,350,VALID,0.921094,
2011-11-07, 01:17:04,VALID,1002.46,VALID,0,VALID,84.8179,VALID,0,VALID,24.6166,VALID,2,VALID,0.733984,
2011-11-07, 01:18:04,VALID,1002.43,VALID,0,VALID,84.6043,VALID,0,VALID,24.6361,VALID,351,VALID,0.846484,
2011-11-07, 01:19:04,VALID,1002.45,VALID,0,VALID,84.5051,VALID,0,VALID,24.6166,VALID,354,VALID,0.835547,
2011-11-07, 01:20:04,VALID,1002.43,VALID,0,VALID,84.6882,VALID,0,VALID,24.6361,VALID,345,VALID,0.468359,
2011-11-07, 01:21:04,VALID,1002.45,VALID,0,VALID,84.4441,VALID,0,VALID,24.6166,VALID,341,VALID,0.941406,
2011-11-07, 01:22:04,VALID,1002.43,VALID,0,VALID,84.4746,VALID,0,VALID,24.6166,VALID,331,VALID,0.577734,
2011-11-07, 01:23:04,VALID,1002.4,VALID,0,VALID,84.5051,VALID,0,VALID,24.6166,VALID,344,VALID,0.865234,
2011-11-07, 01:24:04,VALID,1002.4,VALID,0,VALID,84.4441,VALID,0,VALID,24.6361,VALID,350,VALID,0.596094,
2011-11-07, 01:25:04,VALID,1002.38,VALID,0,VALID,84.0245,VALID,0,VALID,24.6361,VALID,350,VALID,1,
2011-11-07, 01:26:04,VALID,1002.38,VALID,0,VALID,84.383,VALID,0,VALID,24.6556,VALID,348,VALID,0.775781,
2011-11-07, 01:27:04,VALID,1002.34,VALID,0,VALID,83.7422,VALID,0,VALID,24.6945,VALID,345,VALID,0.688281,
2011-11-07, 01:28:04,VALID,1002.33,VALID,0,VALID,83.9177,VALID,0,VALID,24.6926,VALID,332,VALID,0.710938,
2011-11-07, 01:29:04,VALID,1002.31,VALID,0,VALID,83.4065,VALID,0,VALID,24.7353,VALID,344,VALID,1.13516,
2011-11-07, 01:30:04,VALID,1002.33,VALID,0,VALID,83.7422,VALID,0,VALID,24.7335,VALID,351,VALID,0.971484,
2011-11-07, 01:31:04,VALID,1002.32,VALID,0,VALID,83.582,VALID,0,VALID,24.714,VALID,353,VALID,0.936328,
2011-11-07, 01:32:04,VALID,1002.25,VALID,0,VALID,83.5134,VALID,0,VALID,24.7121,VALID,349,VALID,0.917188,
2011-11-07, 01:33:04,VALID,1002.27,VALID,0,VALID,83.1548,VALID,0,VALID,24.7529,VALID,341,VALID,1.0957,
2011-11-07, 01:34:04,VALID,1002.26,VALID,0,VALID,82.4453,VALID,0,VALID,24.7724,VALID,348,VALID,1.43047,
2011-11-07, 01:35:04,VALID,1002.25,VALID,0,VALID,83.0709,VALID,0,VALID,24.8503,VALID,347,VALID,0.88125,
2011-11-07, 01:36:04,VALID,1002.23,VALID,0,VALID,83.0938,VALID,0,VALID,24.8308,VALID,349,VALID,0.866406,
2011-11-07, 01:37:04,VALID,1002.21,VALID,0,VALID,83.3226,VALID,0.0815089,VALID,24.79,VALID,349,VALID,0.367188,
2011-11-07, 01:38:04,VALID,1002.19,VALID,0,VALID,83.5744,VALID,0,VALID,24.7529,VALID,346,VALID,0.660547,
2011-11-07, 01:39:04,VALID,1002.18,VALID,0,VALID,83.5668,VALID,0,VALID,24.7335,VALID,344,VALID,0.555859,
2011-11-07, 01:40:04,VALID,1002.16,VALID,0,VALID,83.1319,VALID,0,VALID,24.7335,VALID,353,VALID,0.971875,
2011-11-07, 01:41:04,VALID,1002.13,VALID,0,VALID,83.0938,VALID,0,VALID,24.7937,VALID,352,VALID,0.896875,
2011-11-07, 01:42:04,VALID,1002.12,VALID,0,VALID,83.109,VALID,0.0815089,VALID,24.7724,VALID,349,VALID,0.613281,
2011-11-07, 01:43:04,VALID,1002.12,VALID,0,VALID,82.9412,VALID,0,VALID,24.751,VALID,341,VALID,0.703906,
2011-11-07, 01:44:04,VALID,1002.06,VALID,0,VALID,83.2616,VALID,0,VALID,24.7724,VALID,341,VALID,0.527734,
2011-11-07, 01:45:04,VALID,1002.03,VALID,0,VALID,83.3455,VALID,0,VALID,24.7724,VALID,343,VALID,0.375781,
2011-11-07, 01:46:04,VALID,1002.01,VALID,0,VALID,83.3531,VALID,0,VALID,24.7548,VALID,343,VALID,0.492969,
2011-11-07, 01:47:04,VALID,1002,VALID,0,VALID,83.521,VALID,0,VALID,24.7567,VALID,354,VALID,0.313672,
2011-11-07, 01:48:04,VALID,1001.98,VALID,0,VALID,83.788,VALID,0,VALID,24.714,VALID,353,VALID,0.335156,
2011-11-07, 01:49:04,VALID,1001.97,VALID,0,VALID,83.4142,VALID,0,VALID,24.6964,VALID,351,VALID,0.444531,
2011-11-07, 01:50:04,VALID,1001.96,VALID,0,VALID,84.0016,VALID,0,VALID,24.6945,VALID,343,VALID,0.361328,
2011-11-07, 01:51:04,VALID,1001.95,VALID,0,VALID,83.0556,VALID,0,VALID,24.6769,VALID,346,VALID,1.01367,
2011-11-07, 01:52:04,VALID,1001.94,VALID,0,VALID,83.9253,VALID,0,VALID,24.7159,VALID,353,VALID,0.370703,
2011-11-07, 01:53:04,VALID,1001.91,VALID,0,VALID,83.3455,VALID,0,VALID,24.7159,VALID,4,VALID,0.633594,
2011-11-07, 01:54:04,VALID,1001.9,VALID,0,VALID,83.0556,VALID,0,VALID,24.6964,VALID,338,VALID,0.366016,
2011-11-07, 01:55:04,VALID,1001.89,VALID,0,VALID,83.3989,VALID,0,VALID,24.6945,VALID,339,VALID,0.626172,
2011-11-07, 01:56:04,VALID,1001.86,VALID,0,VALID,83.521,VALID,0,VALID,24.7159,VALID,346,VALID,0.237109,
2011-11-07, 01:57:04,VALID,1001.88,VALID,0,VALID,83.8795,VALID,0,VALID,24.6769,VALID,346,VALID,0.324609,
2011-11-07, 01:58:04,VALID,1001.84,VALID,0,VALID,83.9406,VALID,0,VALID,24.6574,VALID,346,VALID,0.488672,
2011-11-07, 01:59:04,VALID,1001.87,VALID,0,VALID,84.528,VALID,0,VALID,24.638,VALID,346,VALID,0.206641,
2011-11-07, 02:00:04,VALID,1001.87,VALID,0,VALID,84.8637,VALID,0,VALID,24.5796,VALID,346,VALID,0.243359,
2011-11-07, 02:01:04,VALID,1001.86,VALID,0,VALID,84.528,VALID,0,VALID,24.5212,VALID,351,VALID,0.388672,
2011-11-07, 02:02:04,VALID,1001.84,VALID,0,VALID,84.4212,VALID,0,VALID,24.5035,VALID,351,VALID,0.282031,
2011-11-07, 02:03:04,VALID,1001.83,VALID,0,VALID,84.4212,VALID,0,VALID,24.4609,VALID,351,VALID,0.126563,
2011-11-07, 02:04:04,VALID,1001.84,VALID,0,VALID,84.4441,VALID,0,VALID,24.4628,VALID,360,VALID,0.275391,
2011-11-07, 02:05:04,VALID,1001.84,VALID,0,VALID,85.2527,VALID,0,VALID,24.4433,VALID,360,VALID,0.103516,
2011-11-07, 02:06:04,VALID,1001.84,VALID,0,VALID,85.7257,VALID,0,VALID,24.383,VALID,360,VALID,0.163281,
2011-11-07, 02:07:04,VALID,1001.84,VALID,0,VALID,85.6876,VALID,0,VALID,24.3673,VALID,360,VALID,0.208203,
2011-11-07, 02:08:04,VALID,1001.85,VALID,0,VALID,86.4581,VALID,0,VALID,24.3283,VALID,360,VALID,0.176953,
2011-11-07, 02:09:04,VALID,1001.85,VALID,0,VALID,86.5878,VALID,0,VALID,24.2681,VALID,360,VALID,0,
2011-11-07, 02:10:04,VALID,1001.85,VALID,0,VALID,86.8319,VALID,0,VALID,24.2291,VALID,360,VALID,0,
2011-11-07, 02:11:04,VALID,1001.82,VALID,0,VALID,87.2286,VALID,0,VALID,24.1902,VALID,360,VALID,0,
2011-11-07, 02:12:04,VALID,1001.82,VALID,0,VALID,87.343,VALID,0,VALID,24.1513,VALID,360,VALID,0,
2011-11-07, 02:13:04,VALID,1001.83,VALID,0,VALID,87.6024,VALID,0,VALID,24.1318,VALID,360,VALID,0,
2011-11-07, 02:14:04,VALID,1001.82,VALID,0,VALID,87.6406,VALID,0,VALID,24.1142,VALID,360,VALID,0,
2011-11-07, 02:15:04,VALID,1001.82,VALID,0,VALID,87.5719,VALID,0,VALID,24.0345,VALID,360,VALID,0.0429688,
2011-11-07, 02:16:04,VALID,1001.81,VALID,0,VALID,88.0373,VALID,0,VALID,24.0345,VALID,360,VALID,0,
2011-11-07, 02:17:04,VALID,1001.81,VALID,0,VALID,88.228,VALID,0,VALID,24.015,VALID,360,VALID,0.101563,
2011-11-07, 02:18:04,VALID,1001.79,VALID,0,VALID,88.7391,VALID,0,VALID,23.9955,VALID,360,VALID,0.275391,
2011-11-07, 02:19:04,VALID,1001.8,VALID,0,VALID,89.0672,VALID,0,VALID,23.9566,VALID,360,VALID,0.320703,
2011-11-07, 02:20:04,VALID,1001.79,VALID,0,VALID,89.3494,VALID,0,VALID,23.8751,VALID,360,VALID,0.273438,
2011-11-07, 02:21:04,VALID,1001.79,VALID,0,VALID,89.7461,VALID,0,VALID,23.8787,VALID,360,VALID,0.443359,
2011-11-07, 02:22:04,VALID,1001.79,VALID,0,VALID,89.9903,VALID,0,VALID,23.8398,VALID,360,VALID,0.578516,
2011-11-07, 02:23:04,VALID,1001.8,VALID,0,VALID,90.2497,VALID,0,VALID,23.8203,VALID,360,VALID,0.488672,
2011-11-07, 02:24:04,VALID,1001.8,VALID,0,VALID,90.5167,VALID,0,VALID,23.7814,VALID,360,VALID,0.556641,
2011-11-07, 02:25:04,VALID,1001.8,VALID,0,VALID,90.5167,VALID,0,VALID,23.7212,VALID,360,VALID,0.421094,
2011-11-07, 02:26:04,VALID,1001.83,VALID,0,VALID,90.9744,VALID,0,VALID,23.7443,VALID,360,VALID,0.511328,
2011-11-07, 02:27:04,VALID,1001.82,VALID,0,VALID,91.0431,VALID,0,VALID,23.6646,VALID,359,VALID,0.598047,
2011-11-07, 02:28:04,VALID,1001.82,VALID,0,VALID,91.3864,VALID,0,VALID,23.6452,VALID,357,VALID,0.722656,
2011-11-07, 02:29:04,VALID,1001.84,VALID,0,VALID,91.4169,VALID,0,VALID,23.6062,VALID,357,VALID,0.532031,
2011-11-07, 02:30:04,VALID,1001.85,VALID,0,VALID,91.6915,VALID,0,VALID,23.608,VALID,356,VALID,0.587109,
2011-11-07, 02:31:04,VALID,1001.83,VALID,0,VALID,91.7373,VALID,0.0815089,VALID,23.5868,VALID,356,VALID,0.532031,
2011-11-07, 02:32:04,VALID,1001.85,VALID,0,VALID,91.7907,VALID,0,VALID,23.5673,VALID,356,VALID,0.508984,
2011-11-07, 02:33:04,VALID,1001.87,VALID,0,VALID,91.8899,VALID,0,VALID,23.546,VALID,356,VALID,0.50625,
2011-11-07, 02:34:04,VALID,1001.85,VALID,0,VALID,91.8899,VALID,0,VALID,23.5266,VALID,356,VALID,0.5125,
2011-11-07, 02:35:04,VALID,1001.87,VALID,0,VALID,91.9585,VALID,0,VALID,23.5071,VALID,356,VALID,0.366016,
2011-11-07, 02:36:04,VALID,1001.9,VALID,0,VALID,92.0424,VALID,0,VALID,23.4877,VALID,356,VALID,0.392578,
2011-11-07, 02:37:04,VALID,1001.88,VALID,0,VALID,92.1721,VALID,0,VALID,23.4877,VALID,356,VALID,0.504687,
2011-11-07, 02:38:04,VALID,1001.91,VALID,0,VALID,92.0196,VALID,0.0815089,VALID,23.4682,VALID,356,VALID,0.482812,
2011-11-07, 02:39:04,VALID,1001.89,VALID,0,VALID,92.0653,VALID,0,VALID,23.4682,VALID,356,VALID,0.516797,
2011-11-07, 02:40:04,VALID,1001.87,VALID,0,VALID,91.989,VALID,0,VALID,23.4293,VALID,356,VALID,0.308203,
2011-11-07, 02:41:04,VALID,1001.87,VALID,0,VALID,91.8746,VALID,0,VALID,23.47,VALID,344,VALID,0.536328,
2011-11-07, 02:42:04,VALID,1001.9,VALID,0,VALID,92.0119,VALID,0,VALID,23.4682,VALID,344,VALID,0.451172,
2011-11-07, 02:43:04,VALID,1001.92,VALID,0,VALID,92.0958,VALID,0,VALID,23.4877,VALID,344,VALID,0.448438,
2011-11-07, 02:44:04,VALID,1001.92,VALID,0,VALID,91.8746,VALID,0,VALID,23.4894,VALID,344,VALID,0.370313,
2011-11-07, 02:45:04,VALID,1001.9,VALID,0,VALID,91.867,VALID,0,VALID,23.4682,VALID,344,VALID,0.408203,
2011-11-07, 02:46:04,VALID,1001.9,VALID,0,VALID,91.9204,VALID,0,VALID,23.4894,VALID,344,VALID,0.456641,
2011-11-07, 02:47:04,VALID,1001.93,VALID,0,VALID,91.9204,VALID,0,VALID,23.5107,VALID,344,VALID,0.484766,
2011-11-07, 02:48:04,VALID,1001.93,VALID,0,VALID,91.8899,VALID,0,VALID,23.4894,VALID,344,VALID,0.5,
2011-11-07, 02:49:04,VALID,1001.93,VALID,0,VALID,92.0196,VALID,0,VALID,23.4894,VALID,344,VALID,0.445703,
2011-11-07, 02:50:04,VALID,1001.97,VALID,0,VALID,92.0882,VALID,0,VALID,23.4894,VALID,349,VALID,0.557422,
2011-11-07, 02:51:04,VALID,1001.92,VALID,0,VALID,92.134,VALID,0,VALID,23.47,VALID,349,VALID,0.418359,
2011-11-07, 02:52:04,VALID,1001.93,VALID,0,VALID,92.1111,VALID,0,VALID,23.4487,VALID,349,VALID,0.591406,
2011-11-07, 02:53:04,VALID,1001.96,VALID,0,VALID,91.9738,VALID,0,VALID,23.4311,VALID,20,VALID,0.602734,
2011-11-07, 02:54:04,VALID,1001.95,VALID,0,VALID,91.7525,VALID,0,VALID,23.4311,VALID,20,VALID,0.286719,
2011-11-07, 02:55:04,VALID,1001.96,VALID,0,VALID,91.8136,VALID,0,VALID,23.4311,VALID,20,VALID,0.404687,
2011-11-07, 02:56:04,VALID,1001.97,VALID,0,VALID,92.0958,VALID,0,VALID,23.4505,VALID,20,VALID,0.289063,
2011-11-07, 02:57:04,VALID,1001.96,VALID,0,VALID,92.1492,VALID,0,VALID,23.4311,VALID,20,VALID,0.327734,
2011-11-07, 02:58:04,VALID,1002,VALID,0,VALID,92.1187,VALID,0,VALID,23.4328,VALID,20,VALID,0.303906,
2011-11-07, 02:59:04,VALID,1002.01,VALID,0,VALID,92.0501,VALID,0,VALID,23.3921,VALID,20,VALID,0.184375,
2011-11-07, 03:00:04,VALID,1002,VALID,0,VALID,92.1492,VALID,0,VALID,23.3921,VALID,20,VALID,0.015625,
2011-11-07, 03:01:04,VALID,1001.97,VALID,0,VALID,92.1645,VALID,0,VALID,23.3727,VALID,20,VALID,0,
2011-11-07, 03:02:04,VALID,1001.98,VALID,0,VALID,92.3857,VALID,0,VALID,23.3709,VALID,20,VALID,0,
2011-11-07, 03:03:04,VALID,1001.98,VALID,0,VALID,92.3934,VALID,0,VALID,23.3532,VALID,20,VALID,0,
2011-11-07, 03:04:04,VALID,1002.01,VALID,0,VALID,92.3323,VALID,0,VALID,23.3727,VALID,20,VALID,0,
2011-11-07, 03:05:04,VALID,1002.01,VALID,0,VALID,92.4239,VALID,0,VALID,23.3532,VALID,20,VALID,0.0585938,
2011-11-07, 03:06:04,VALID,1001.99,VALID,0,VALID,92.5002,VALID,0,VALID,23.3125,VALID,20,VALID,0.0390625,
2011-11-07, 03:07:04,VALID,1002.01,VALID,0,VALID,92.5307,VALID,0,VALID,23.3337,VALID,20,VALID,0.288672,
2011-11-07, 03:08:04,VALID,1002.01,VALID,0,VALID,92.5993,VALID,0,VALID,23.3143,VALID,20,VALID,0.329688,
2011-11-07, 03:09:04,VALID,1001.98,VALID,0,VALID,92.7214,VALID,0,VALID,23.2948,VALID,20,VALID,0.473828,
2011-11-07, 03:10:04,VALID,1002,VALID,0,VALID,92.9503,VALID,0,VALID,23.2948,VALID,20,VALID,0.489453,
2011-11-07, 03:11:04,VALID,1001.99,VALID,0,VALID,93.0876,VALID,0,VALID,23.2736,VALID,20,VALID,0.508984,
2011-11-07, 03:12:04,VALID,1001.99,VALID,0,VALID,93.0723,VALID,0,VALID,23.2754,VALID,20,VALID,0.379687,
2011-11-07, 03:13:04,VALID,1002.02,VALID,0,VALID,93.1563,VALID,0,VALID,23.2754,VALID,20,VALID,0.278125,
2011-11-07, 03:14:04,VALID,1002.02,VALID,0,VALID,93.1029,VALID,0,VALID,23.2559,VALID,20,VALID,0.233594,
2011-11-07, 03:15:04,VALID,1002,VALID,0,VALID,93.3165,VALID,0,VALID,23.2559,VALID,20,VALID,0.288281,
2011-11-07, 03:16:04,VALID,1002.03,VALID,0,VALID,93.3546,VALID,0,VALID,23.2134,VALID,20,VALID,0.264453,
2011-11-07, 03:17:04,VALID,1002.03,VALID,0,VALID,93.4156,VALID,0,VALID,23.2559,VALID,20,VALID,0.248047,
2011-11-07, 03:18:04,VALID,1002.04,VALID,0,VALID,93.4996,VALID,0,VALID,23.2364,VALID,20,VALID,0.411328,
2011-11-07, 03:19:04,VALID,1002.05,VALID,0,VALID,93.6064,VALID,0,VALID,23.2559,VALID,20,VALID,0.297266,
2011-11-07, 03:20:04,VALID,1002.08,VALID,0,VALID,93.6598,VALID,0,VALID,23.2364,VALID,20,VALID,0.319531,
2011-11-07, 03:21:04,VALID,1002.11,VALID,0,VALID,93.7437,VALID,0,VALID,23.2559,VALID,20,VALID,0.00585938,
2011-11-07, 03:22:04,VALID,1002.08,VALID,0,VALID,93.7666,VALID,0,VALID,23.2347,VALID,20,VALID,0.0328125,
2011-11-07, 03:23:04,VALID,1002.09,VALID,0,VALID,93.7971,VALID,0,VALID,23.2559,VALID,20,VALID,0.344922,
2011-11-07, 03:24:04,VALID,1002.11,VALID,0,VALID,93.8123,VALID,0,VALID,23.194,VALID,20,VALID,0.248828,
2011-11-07, 03:25:04,VALID,1002.12,VALID,0,VALID,93.7361,VALID,0,VALID,23.1957,VALID,20,VALID,0,
2011-11-07, 03:26:04,VALID,1002.11,VALID,0,VALID,93.5911,VALID,0,VALID,23.1957,VALID,20,VALID,0,
2011-11-07, 03:27:04,VALID,1002.12,VALID,0,VALID,93.6521,VALID,0,VALID,23.217,VALID,20,VALID,0.272656,
2011-11-07, 03:28:04,VALID,1002.11,VALID,0,VALID,93.6826,VALID,0,VALID,23.1957,VALID,20,VALID,0.351172,
2011-11-07, 03:29:04,VALID,1002.09,VALID,0,VALID,93.5987,VALID,0,VALID,23.2152,VALID,20,VALID,0.307813,
2011-11-07, 03:30:04,VALID,1002.09,VALID,0,VALID,93.6216,VALID,0,VALID,23.2152,VALID,20,VALID,0.354297,
2011-11-07, 03:31:04,VALID,1002.09,VALID,0,VALID,93.7361,VALID,0,VALID,23.2559,VALID,20,VALID,0.339844,
2011-11-07, 03:32:04,VALID,1002.11,VALID,0,VALID,93.7437,VALID,0,VALID,23.2541,VALID,20,VALID,0.308984,
2011-11-07, 03:33:04,VALID,1002.09,VALID,0,VALID,93.8123,VALID,0,VALID,23.2948,VALID,20,VALID,0.473437,
2011-11-07, 03:34:04,VALID,1002.08,VALID,0,VALID,93.8886,VALID,0,VALID,23.2541,VALID,20,VALID,0.473047,
2011-11-07, 03:35:04,VALID,1002.08,VALID,0,VALID,93.8429,VALID,0,VALID,23.2754,VALID,20,VALID,0.429688,
2011-11-07, 03:36:04,VALID,1002.07,VALID,0,VALID,93.8734,VALID,0,VALID,23.2541,VALID,20,VALID,0.357812,
2011-11-07, 03:37:04,VALID,1002.05,VALID,0,VALID,93.9573,VALID,0,VALID,23.2948,VALID,20,VALID,0.458984,
2011-11-07, 03:38:04,VALID,1002.05,VALID,0,VALID,93.9649,VALID,0,VALID,23.2541,VALID,20,VALID,0.562109,
2011-11-07, 03:39:04,VALID,1002.01,VALID,0,VALID,93.9802,VALID,0,VALID,23.2754,VALID,20,VALID,0.4875,
2011-11-07, 03:40:04,VALID,1002.01,VALID,0,VALID,93.9649,VALID,0,VALID,23.2754,VALID,20,VALID,0.645312,
2011-11-07, 03:41:04,VALID,1002,VALID,0,VALID,93.9878,VALID,0,VALID,23.2347,VALID,20,VALID,0.465234,
2011-11-07, 03:42:04,VALID,1002.02,VALID,0,VALID,94.087,VALID,0,VALID,23.2541,VALID,20,VALID,0.423438,
2011-11-07, 03:43:04,VALID,1001.97,VALID,0,VALID,94.1556,VALID,0,VALID,23.2347,VALID,20,VALID,0.536328,
2011-11-07, 03:44:04,VALID,1001.96,VALID,0,VALID,94.2014,VALID,0,VALID,23.2541,VALID,20,VALID,0.283984,